Regional Weather Roundup
Issued by NWS Green Bay, WI

Home | Current Version | Previous Version | Graphics & Text | Print | Product List | Glossary Off
Versions: 1 2 3 4 5 6 7 8 9 10 11 12 13 14 15 16 17 18 19 20 21 22 23 24 25 26 27 28 29 30 31 32 33 34 35 36 37 38 39 40 41 42 43 44 45 46 47 48 49 50

000
ASUS43 KGRB 050410
RWRGRB

NORTH-CENTRAL AND NORTHEAST WISCONSIN REGIONAL WEATHER ROUNDUP
NATIONAL WEATHER SERVICE GREEN BAY WI
1000 PM CST WED MAR 04 2015

WIZ005-009-010>012-018-019-050500-
NORTH CENTRAL WISCONSIN

CITY           SKY/WX    TMP DP  RH WIND       PRES   REMARKS
IRONWOOD       MOCLDY     0  -8  71 SW8       30.22R WCI -15
MANITOWISH WTR CLEAR    -14 -19  76 CALM      30.22R
ARBOR VITAE    CLEAR    -10 -17  70 S5        30.24R WCI -22
EAGLE RIVER    CLEAR     -9 -18  65 SW5       30.22R WCI -21
LAND O LAKES   MOCLDY   -12 -17  79 SW5       30.21R WCI -24
RHINELANDER    CLEAR     -7 -15  68 W6        30.23R WCI -20
PHILLIPS       CLEAR    -10 -15  78 CALM      30.27R
ANTIGO         PTCLDY    -5 -13  67 NW7       30.25R WCI -19
TOMAHAWK       PTCLDY   -13 -18  79 CALM      30.28R
MERRILL        PTCLDY    -3 -13  61 CALM      30.29R
$$

WIZ013-073-050500-
NORTHEAST WISCONSIN

CITY           SKY/WX    TMP DP  RH WIND       PRES   REMARKS
IRON MOUNTAIN  CLEAR     -7 -16  65 NW3       30.23R
MARINETTE      PTCLDY     3 -11  51 N5        30.29S WCI  -6
OCONTO         PTCLDY     3 -10  52 NW5       30.32R WCI  -6
$$

WIZ017-030-035>037-045-050500-
CENTRAL WISCONSIN

CITY           SKY/WX    TMP DP  RH WIND       PRES   REMARKS
MEDFORD        CLEAR     -5 -14  65 NW5       30.28R WCI -16
WAUSAU         CLEAR      0 -12  57 NW7       30.28R WCI -13
MOSINEE        CLEAR      0 -11  60 NW6       30.30R WCI -12
MARSHFIELD     CLEAR     -1 -12  59 NW8       30.31R WCI -15
WISC RAPIDS    PTCLDY     3 -12  49 NW8       30.33R WCI -10
STEVENS POINT  PTCLDY     1 -13  51 NW5       30.31R WCI  -8
WAUPACA        PTCLDY     8 -10  42 NW7       30.33R WCI  -3
SHAWANO        PTCLDY     5 -11  47 CALM      30.33R
CLINTONVILLE   PTCLDY     3 -11  51 NW6       30.32R WCI  -8
$$

WIZ038-039-048-051-050500-
FOX VALLEY

CITY           SKY/WX    TMP DP  RH WIND       PRES   REMARKS
NWS GREEN BAY  PTCLDY     4  -9  55 NW6       30.32R WCI  -7
APPLETON       CLEAR      7 -11  43 NW9       30.31R WCI  -7
OSHKOSH        MOCLDY     7  -9  48 NW9       30.32R WCI  -7
FOND DU LAC    MOCLDY     7  -8  50 NW9       30.33R WCI  -7
$$

WIZ022-050-052-050500-
EAST CENTRAL WISCONSIN

CITY           SKY/WX    TMP DP  RH WIND       PRES   REMARKS
STURGEON BAY   PTCLDY     3 -11  51 NW9       30.30S WCI -11
MANITOWOC      MOCLDY     8  -6  52 NW10      30.32R WCI  -6
SHEBOYGAN      MOCLDY     8  -9  45 NW10      30.31R WCI  -6
$$

LMZ563-521-522-541>543-050500-
LAKESHORE

STATION/POSITION TIME  TEMP    WIND        PRES    VSBY  WAVE
                       AIR SEA DIR/SP/G                  HT/PER
                 (UTC) (F)     (DEG/KT/KT) (MB)    (MI)  (FT/S)
SHEBOYGAN LKSHOR 0400   10     300/ 11/ 15 1028.5R
KEWAUNEE LKSHORE 0400    7     320/  2/  8 1025.2F
NORTHPORT PIER   0400    8     310/ 19/ 26 1025.4S
CHAMBERS ISLAND  0400    2     310/  8/ 10 1025.7R
MENOMINEE LKSHOR 0400    2     310/  6     1026.5S
$$


USA.gov is the U.S. government's official web portal to all federal, state and local government web resources and services.